This demonstration page uses our WeatherBlox Daily Observations layout. Learn more.

Left ArrowRight Arrow

Hourly Observations for November 8, 2015

Temp ( °F °C ) Dew Point ( °F °C ) Humidity (%) Winds ( mph kmh ) Pressure ( in mb ) Visibility ( mi km ) Precip ( " mm )
12:53 am 00:53 Mostly Clear 48 8.9 37 2.8 66 66 Calm 30.00 1016 10 16 0.00 0.00
1:53 am 01:53 Cloudy 50 10 37 2.8 61 61 NW 3 6 30.00 1016 10 16 0.00 0.00
2:53 am 02:53 Cloudy 51 10.6 40 4.4 66 66 NNW 3 6 29.98 1015 10 16 0.00 0.03
3:53 am 03:53 Cloudy 50 10 41 5 71 71 WNW 5 7 29.96 1015 10 16 0.00 0.03
4:53 am 04:53 Cloudy with Light Rain 50 10 46 7.8 86 86 N 5 7 29.96 1015 6 10 0.03 0.76
5:53 am 05:53 Cloudy with Light Rain 50 10 46 7.8 86 86 Calm 29.97 1015 5 8 0.02 0.51
6:53 am 06:53 Cloudy with Light Rain 50 10 46 7.8 86 86 Calm 29.98 1015 9 14 0.07 1.78
7:53 am 07:53 Cloudy 50 10 45 7.2 83 83 Calm 29.98 1015 10 16 0.01 0.25
8:53 am 08:53 Cloudy 51 10.6 47 8.3 86 86 Calm 29.99 1016 10 16 0.00 0.03
9:53 am 09:53 Cloudy 51 10.6 47 8.3 86 86 Calm 29.98 1015 10 16 0.00 0.00
10:53 am 10:53 Cloudy with Light Rain 52 11.1 48 8.9 86 86 NW 5 7 29.98 1015 7 11 0.00 0.03
11:22 am 11:22 Cloudy with Light Rain 52 11 48 9 88 88 SW 6 9 29.97 1015 4 6 0.00 0.00
11:51 am 11:51 Cloudy with Mist and Fog 52 11 48 9 88 88 SW 7 11 29.97 1015 3 4 0.03 0.76
11:53 am 11:53 Cloudy with Light Rain 52 11.1 48 8.9 86 86 SW 7 11 29.97 1015 3 4 0.03 0.76
12:05 pm 12:05 Cloudy with Light Rain 52 11.1 48 8.9 86 86 WSW 7 11 29.97 1015 2 3 0.01 0.25
12:16 pm 12:16 Cloudy with Light Rain 52 11 48 9 88 88 WSW 5 7 29.97 1015 1 2 0.00 0.00
12:32 pm 12:32 Cloudy with Light Rain 52 11 48 9 88 88 WSW 6 9 29.97 1015 2 2 0.00 0.00
12:38 pm 12:38 Cloudy with Light Rain 52 11 48 9 88 88 SW 3 6 29.97 1015 2 3 0.00 0.00
12:46 pm 12:46 Cloudy with Light Rain 52 11 48 9 88 88 S 5 7 29.94 1014 3 4 0.00 0.00
12:50 pm 12:50 Cloudy with Mist and Fog 52 11 48 9 88 88 SSE 6 9 29.94 1014 3 5 0.00 0.00
12:53 pm 12:53 Cloudy with Mist and Fog 52 11.1 48 8.9 86 86 SSE 7 11 29.94 1014 4 6 0.06 1.52
1:53 pm 13:53 Mostly Cloudy 54 12.2 50 10 87 87 S 13 20 29.92 1013 10 16 0.00 0.00
2:27 pm 14:27 Cloudy 54 12.2 49 9.4 83 83 SSW 9 15 29.94 1014 10 16 0.00 0.00
2:49 pm 14:49 Cloudy 54 12 48 9 82 82 S 12 19 29.94 1014 10 16 0.00 0.00
2:53 pm 14:53 Cloudy 54 12.2 49 9.4 83 83 SSW 9 15 29.91 1013 10 16 0.00 0.00
3:53 pm 15:53 Cloudy 53 11.7 49 9.4 86 86 S 8 13 29.90 1013 10 16 0.00 0.00
4:18 pm 16:18 Cloudy 54 12 48 9 82 82 SSW 6 9 29.94 1014 10 16 0.00 0.00
4:53 pm 16:53 Cloudy 53 11.7 48 8.9 83 83 SSW 7 11 29.89 1012 10 16 0.00 0.00
5:03 pm 17:03 Cloudy 54 12 48 9 82 82 SSW 8 13 29.91 1013 10 16 0.00 0.00
5:34 pm 17:34 Cloudy 54 12 48 9 82 82 SSW 6 9 29.91 1013 10 16 0.00 0.00
5:53 pm 17:53 Cloudy 53 11.7 49 9.4 86 86 SW 5 7 29.89 1012 10 16 0.00 0.00
6:21 pm 18:21 Cloudy with Light Rain 53 11.7 49 9.4 86 86 SW 5 7 29.94 1014 9 14 0.00 0.03
6:38 pm 18:38 Cloudy with Light Rain 54 12 48 9 82 82 SE 6 9 29.91 1013 6 10 0.00 0.00
6:53 pm 18:53 Cloudy with Light Rain 52 11.1 48 8.9 86 86 S 3 6 29.88 1012 8 13 0.02 0.51
7:38 pm 19:38 Cloudy 52 11 48 9 88 88 Calm 29.91 1013 7 11 0.00 0.00
7:53 pm 19:53 Cloudy with Light Rain 52 11.1 48 8.9 86 86 Calm 29.88 1012 5 8 0.00 0.03
8:53 pm 20:53 Mostly Cloudy with Mist and Fog 51 10.6 47 8.3 86 86 Calm 29.87 1011 3 5 0.00 0.03
9:31 pm 21:31 Partly Cloudy with Mist and Fog 50 10 46 7.8 86 86 Calm 29.91 1013 2 2 0.00 0.00
9:35 pm 21:35 Partly Cloudy with Mist and Fog 50 10 46 7.8 86 86 E 3 6 29.91 1013 1 1 0.00 0.00
9:48 pm 21:48 Mostly Cloudy with Mist and Fog 50 10 46 8 88 88 Calm 29.91 1013 2 2 0.00 0.00
9:49 pm 21:49 Mostly Cloudy with Mist and Fog 50 10 46 8 88 88 Calm 29.91 1013 2 2 0.00 0.00
10:00 pm 22:00 Mostly Cloudy with Mist and Fog 48 9 45 7 87 87 Calm 29.91 1013 2 3 0.00 0.00
10:23 pm 22:23 Partly Cloudy with Mist and Fog 49 9.4 46 7.8 90 90 NNE 3 6 29.91 1013 1 2 0.00 0.00
10:30 pm 22:30 Mostly Cloudy with Fog 48 9 45 7 87 87 NNE 3 6 29.91 1013 1 1 0.00 0.00
10:44 pm 22:44 Mostly Cloudy with Mist and Fog 48 9 45 7 87 87 Calm 29.91 1013 2 2 0.00 0.00
10:50 pm 22:50 Cloudy with Mist and Fog 48 9 45 7 87 87 Calm 29.91 1013 3 5 0.00 0.00
10:53 pm 22:53 Cloudy with Mist and Fog 49 9.4 45 7.2 86 86 ENE 3 6 29.87 1012 3 5 0.00 0.00
11:34 pm 23:34 Partly Cloudy with Mist and Fog 48 9 45 7 87 87 Calm 29.91 1013 3 5 0.00 0.00
11:38 pm 23:38 Partly Cloudy with Mist and Fog 48 9 45 7 87 87 Calm 29.91 1013 2 2 0.00 0.00
11:40 pm 23:40 Partly Cloudy with Mist and Fog 46 8 45 7 93 93 Calm 29.91 1013 1 1 0.00 0.00
11:45 pm 23:45 Mostly Cloudy with Fog 47 8.3 44 6.7 90 90 Calm 29.91 1013 0 0 0.00 0.00
11:53 pm 23:53 Mostly Cloudy with Fog 48 8.9 44 6.7 86 86 Calm 29.88 1012 0 0 0.00 0.00

Powered by AerisWeather